sat.trackr.live / text

‹ back to catalog

BRO-8

NORAD 55011 · 2023-001C

PAYLOAD ACTIVE UNKNOWN

§ Identity

Operator
Country
FR
Launch date
2023-01-03
Launch site
AFETR
Launch vehicle
Mass (kg)
RCS (m²)

External: N2YO · Heavens-Above · Gunter

§ Orbital elements

Epoch: 2026-09-21T22:52:22.744128Z

Period
92.60 min
Inclination
97.3094°
Eccentricity
0.0006632
Mean motion
15.55125202 rev/d
Perigee alt
397.3 km
Apogee alt
406.3 km
Semi-major
6,779.9 km
B*
4.6819e-4
RAAN
331.8818°
Arg perigee
123.1578°
Mean anomaly
237.0313°
Rev number
20,721

§ Raw data

BRO-81 55011U 23001C   26264.95304102  .00031536  00000+0  46819-3 0  99902 55011  97.3094 331.8818 0006632 123.1578 237.0313 15.55125202207211

JSON: /api/v1/satellites/55011 · /tle

For live sub-satellite position, see the globe view (requires WebGL).

§ Visibility from observer

Set your observer location to see the next 7 days of passes ≥ 10°. The values pass through the URL so the page stays shareable.

No JS? Fill the form by hand. The geolocation button needs JavaScript.

§ Radio — SatNOGS DB

ModeDescriptionDownlinkUplink
FSK AX.100 Mode 5 Mode U - TLM 401.735 MHz
FSK S-Band transmitter 2.261 GHz
FSK AX.100 Mode 5 Telemetry 401.612 MHz

3 transmitters · refreshed weekly from db.satnogs.org